Presure
157 177 178 171 170 235 213 211 124 153 127 127 130 143 150 144 151 78 140 164 143 160 103 179 156 188 125 184 208 182 171 195 201 175 191 127 157 170 140 159 177 180 173 158
160 191 192 170 194 237 229 125 207 144 139 132 140 138 138 164 158 92 122 122 116 109 122 173 131 172 200 198 187 199 189 205 177 188 180 167 149 148 167 173 162 174 175 207
200 179 189 184 202 197 218 242 239 242 191 145 137 135 88 147 161 101 95 171 146 109 249 116 156 193 206 191 206 183 190 196 205 198 150 154 179 162 167 160 221 199 179 143
173 180 161 163 201 200 191 188 180 180 229 141 171 248 256 225 178 241 117 155 268 155 145 229 223 204 191 187 181 191 216 208 177 173 163 171 174 173 183 216 158 203 197 192
176 201 204 163 200 199 200 190 189 83 243 239 245 243 246 141 237 130 127 171 260 158 281 227 225 206 194 193 200 178 177 194 157 174 159 177 149 190 144 194 172 171 160 218
177 204 197 191 197 188 188 180 181 194 194 237 238 223 225 229 218 228 232 199 139 263 267 225 207 206 193 212 154 193 193 183 172 167 166 171 158 142 160 179 150 192 173 201
184 203 198 196 193 191 134 174 181 210 208 220 159 223 141 230 197 227 185 124 220 244 257 242 219 203 199 194 181 141 186 179 170 172 163 165 137 136 154 137 144 188 209 152
190 200 200 190 191 189 184 202 205 204 202 211 217 131 205 209 227 107 104 245 252 233 250 188 203 190 180 200 149 194 167 169 163 173 168 155 136 135 134 181 158 221 212 206
208 202 207 194 196 196 182 205 209 204 210 210 210 202 206 206 152 229 261 183 240 246 251 235 206 188 183 172 184 178 164 173 141 164 160 126 137 132 134 175 234 217 205 194
166 199 194 192 189 208 211 201 209 205 208 218 210 205 202 159 217 226 258 259 225 244 228 228 196 199 181 181 168 170 171 174 173 153 149 167 159 129 185 217 144 178 180 193
192 187 180 194 216 214 212 207 206 207 208 229 227 212 208 214 220 239 254 254 244 214 215 216 217 204 179 184 181 184 173 175 178 179 170 170 137 141 134 205 221 213 197 199
190 209 224 219 215 213 212 209 208 214 227 226 221 213 218 216 225 247 260 247 220 210 211 221 209 199 188 185 182 181 176 179 183 189 176 160 123 151 182 236 146 213 198 195
227 221 220 216 213 211 216 221 212 218 217 221 203 227 213 207 233 261 253 244 209 200 214 202 202 197 193 201 201 207 181 170 191 175 174 153 164 151 180 182 231 217 209 205
218 215 217 218 216 216 220 216 222 240 219 204 223 216 215 210 199 266 213 226 202 205 192 186 200 191 171 187 201 179 200 178 179 173 167 149 166 159 156 188 181 176 226 216
222 222 227 227 229 255 265 219 223 230 207 214 213 204 208 207 215 252 229 215 203 189 210 198 193 181 184 178 173 215 158 179 162 170 146 147 160 155 159 172 179 172 192 178
215 221 231 263 271 209 252 242 206 213 250 222 211 248 252 251 224 118 230 211 193 188 200 192 176 154 164 189 161 152 187 174 174 175 154 156 182 149 177 183 173 202 187 183
212 223 238 252 260 283 243 241 247 229 230 239 233 188 184 249 231 239 228 229 196 188 194 176 180 158 192 197 163 157 191 177 147 180 179 205 148 166 174 158 173 188 178 175
211 218 226 238 242 226 234 209 245 222 189 188 254 240 239 251 245 218 224 223 202 190 184 178 197 194 185 201 175 145 175 178 146 197 208 181 157 165 165 162 179 167 176 174
200 212 220 228 239 250 249 216 191 184 240 236 240 239 255 255 241 229 224 222 207 187 189 180 159 188 177 184 134 165 218 202 171 167 202 172 160 163 159 168 176 169 179 183
199 206 211 221 222 223 206 190 186 191 228 239 242 246 252 246 237 227 223 217 214 193 187 189 154 136 160 138 161 199 197 192 194 169 153 170 181 161 160 161 181 187 173 176
194 197 203 209 206 209 194 189 206 193 178 240 233 256 244 247 196 225 223 212 245 207 164 187 168 181 178 163 155 169 169 172 163 155 136 179 186 172 177 181 171 188 176 164
189 196 197 201 192 195 190 187 209 198 187 233 251 264 244 242 183 233 208 216 202 246 229 210 176 166 123 173 162 181 157 189 186 205 188 176 169 161 154 176 181 187 178 166
188 191 192 199 201 189 198 205 208 207 200 237 242 250 234 172 229 224 173 210 245 191 188 190 212 168 156 131 144 149 156 171 199 206 190 206 195 175 179 186 183 190 155 154
196 190 190 192 197 192 195 197 207 210 201 234 214 186 191 230 220 185 198 200 249 230 215 231 187 161 172 198 150 143 156 150 164 192 141 173 167 171 174 181 165 166 156 142
197 192 190 187 191 196 191 197 202 205 201 211 236 234 227 204 205 201 202 198 228 220 223 215 166 203 201 163 156 156 160 202 183 165 153 162 162 154 157 187 169 177 165 169
181 192 184 195 188 193 193 183 205 203 204 206 180 180 210 203 202 203 201 204 204 218 219 216 205 160 191 188 183 198 193 176 181 189 185 159 176 157 169 165 156 176 174 171
Wind_Speed
46 43 47 46 43 44 43 41 41 41 37 38 40 43 43 39 37 10 34 47 41 49 12 25 21 32 14 27 32 23 21 23 26 21 14 20 15 14 15 9 34 36 12 27
45 40 44 45 42 42 42 40 38 44 43 37 44 44 41 41 42 1 25 19 16 11 19 18 12 28 29 29 26 27 28 26 24 19 14 15 13 13 16 23 20 32 19 29
38 44 42 42 38 40 38 39 40 38 40 44 44 43 2 24 26 5 3 33 22 13 28 11 19 34 31 30 30 22 24 28 23 15 16 15 19 17 17 13 27 27 22 27
45 44 38 44 37 37 36 36 36 28 33 46 38 32 26 30 29 27 22 28 18 25 30 32 31 34 33 31 28 23 17 17 15 18 19 19 15 21 24 25 11 25 25 25
46 42 40 46 36 34 37 37 36 8 34 34 28 25 24 33 25 10 21 23 18 28 18 33 32 36 37 31 26 18 18 10 23 16 18 18 18 23 5 30 30 23 16 25
47 45 42 40 38 38 38 42 42 36 40 30 23 28 31 28 34 29 28 28 28 17 21 36 30 28 35 26 19 16 10 8 15 13 13 19 7 8 14 34 9 28 25 23
48 47 43 40 40 39 21 44 41 36 35 32 17 28 18 29 28 32 30 19 14 20 23 32 37 35 28 26 22 15 9 10 12 13 14 14 15 11 14 3 6 19 23 8
49 47 46 42 42 39 41 36 37 35 37 33 30 18 33 33 33 11 6 17 16 23 22 27 37 33 31 24 15 13 13 16 12 19 16 13 17 14 10 37 18 18 19 17
52 47 47 44 43 41 42 37 36 35 35 35 32 35 36 35 24 35 21 16 18 17 21 31 42 37 34 30 26 22 17 18 24 15 17 21 15 14 12 9 13 14 15 14
37 50 45 44 44 42 41 39 37 37 36 37 34 37 39 25 35 32 22 17 22 25 24 30 38 42 35 39 19 21 26 22 23 17 15 16 18 16 27 11 16 13 15 12
51 49 48 47 46 42 42 40 37 38 38 34 33 38 37 37 33 27 21 17 25 32 34 32 34 42 32 42 35 33 21 21 24 26 14 14 19 17 16 13 12 12 12 11
51 48 45 47 43 44 42 39 36 37 32 30 31 36 35 35 32 25 21 17 37 34 30 28 32 42 44 43 40 39 25 23 27 28 19 13 24 16 26 12 18 11 14 15
39 43 46 45 44 44 39 36 35 34 31 29 37 33 35 33 26 24 21 24 39 37 31 32 31 31 28 35 35 27 26 10 30 24 19 12 21 18 25 23 11 10 12 12
37 40 43 44 38 42 41 37 35 31 33 37 35 37 35 30 22 23 25 41 41 38 23 23 36 35 20 22 37 21 34 19 22 19 18 13 24 20 18 22 18 16 11 12
34 36 38 37 33 35 35 36 35 33 36 36 36 38 37 30 24 26 22 48 43 30 30 29 35 28 30 17 9 22 13 19 17 19 16 16 27 23 23 21 20 18 15 16
32 32 33 31 31 33 35 34 34 36 29 35 35 30 27 26 27 19 23 52 37 36 29 27 28 22 14 36 12 15 27 24 18 22 25 25 22 23 22 20 20 15 14 14
30 27 24 27 27 31 27 27 29 31 34 34 32 35 28 29 30 29 25 34 43 33 34 24 26 22 40 37 17 19 32 26 18 27 26 21 21 29 22 22 24 13 12 14
27 24 20 20 23 23 27 29 28 30 30 32 29 31 34 30 30 26 29 32 56 43 36 23 34 26 29 36 25 16 21 29 20 26 22 20 28 24 25 24 24 24 19 17
31 26 20 17 17 20 20 22 31 31 24 28 29 32 30 30 32 31 32 36 46 39 42 27 22 32 23 27 23 28 30 27 23 26 18 25 30 26 29 27 27 27 24 22
30 27 23 22 23 25 25 32 32 32 23 28 30 30 27 30 33 32 32 39 48 49 40 43 22 19 26 19 25 24 28 28 26 26 31 27 26 31 33 32 32 32 29 27
33 32 28 26 28 29 32 32 26 33 25 27 25 28 26 30 31 31 32 43 33 53 37 46 34 40 34 26 21 32 28 32 32 34 31 32 34 35 33 37 34 36 36 35
40 35 33 32 34 32 34 30 27 33 25 25 27 28 28 31 27 32 38 35 48 37 39 49 34 32 28 38 38 49 39 46 45 40 38 37 33 31 34 34 40 37 38 39
41 40 39 36 37 38 33 28 26 30 28 25 25 25 28 29 33 31 32 36 33 37 43 46 41 28 29 28 28 28 21 15 45 40 34 47 43 40 43 47 48 46 38 39
46 46 42 44 38 40 36 30 28 28 30 26 28 28 29 29 32 33 33 35 32 39 40 40 40 27 29 61 32 33 30 27 20 44 32 34 29 33 37 42 40 42 42 40
47 53 48 48 45 42 38 36 33 31 33 30 30 31 33 32 32 32 32 35 31 39 42 45 31 51 54 34 33 34 34 59 44 28 33 35 34 34 36 51 42 47 46 45
53 54 53 52 50 48 45 44 36 36 36 35 33 33 34 34 34 35 36 35 34 35 43 46 49 32 50 49 50 59 56 49 49 53 50 40 45 42 44 47 43 54 54 55
Wind_Direction
254 255 255 252 254 255 257 258 243 250 246 249 252 256 260 259 263 85 260 281 276 285 303 266 270 277 291 274 251 286 311 278 277 288 257 277 276 309 253 332 346 352 305 278
254 252 253 254 256 258 259 236 258 246 244 242 249 252 255 261 267 233 268 273 281 273 279 254 267 276 256 258 276 252 259 270 283 268 255 275 275 286 323 336 3 358 288 319
247 247 252 255 256 259 261 264 265 268 258 248 249 254 148 264 268 297 330 273 276 262 218 295 254 267 249 265 254 271 263 264 267 242 275 277 282 280 340 350 311 323 338 265
247 243 244 254 254 257 258 258 255 260 272 248 260 280 272 268 261 270 265 268 276 280 292 226 229 250 265 269 273 274 242 249 272 265 275 287 280 335 336 311 12 322 326 331
248 251 253 254 254 254 257 255 258 196 268 272 274 273 272 263 265 226 278 274 277 281 235 223 220 238 252 261 258 274 255 256 251 270 264 324 228 340 217 337 346 346 0 320
250 255 254 254 254 248 249 254 257 262 261 268 264 260 263 260 259 267 270 277 273 246 222 212 233 221 254 236 292 235 242 239 252 256 290 319 228 201 329 334 5 327 342 325
252 255 256 255 254 254 236 253 259 263 265 264 246 263 270 267 259 264 274 272 269 222 207 207 199 216 228 240 260 305 269 274 280 296 293 275 232 233 305 268 338 325 316 302
253 255 257 253 253 253 254 261 263 265 267 265 262 226 260 264 266 181 215 257 239 218 201 211 208 224 264 216 257 231 276 272 307 285 310 265 229 244 255 311 334 300 310 318
252 252 255 254 256 257 255 262 262 261 261 262 256 259 261 261 236 270 271 256 214 209 190 197 201 221 239 272 242 257 272 257 204 285 280 252 243 253 272 289 309 291 311 320
237 250 252 254 253 258 257 259 260 260 258 258 253 255 259 250 263 268 267 246 217 182 184 199 213 212 234 239 270 276 257 267 264 244 257 310 302 268 339 327 321 308 320 311
247 249 248 252 250 251 252 253 255 256 258 261 260 255 257 260 264 265 261 230 190 190 194 196 198 210 241 237 251 239 258 268 259 268 281 284 257 267 277 320 319 312 318 314
245 246 244 244 245 247 250 250 250 255 260 259 257 256 256 257 260 254 249 216 185 194 202 184 194 209 225 244 252 251 253 259 266 252 271 287 264 309 338 330 329 322 317 311
237 238 241 243 245 249 249 250 247 249 248 249 247 259 251 258 257 239 231 204 193 213 198 194 191 201 219 227 239 235 249 261 258 263 263 292 317 308 339 338 331 332 321 312
237 240 242 244 243 245 247 245 245 248 242 245 245 249 248 252 264 231 221 191 209 205 237 198 196 209 224 251 234 241 246 255 262 247 266 300 307 308 319 342 340 347 330 329
244 248 253 253 246 245 238 245 246 244 245 246 246 254 258 256 252 231 225 192 203 228 204 210 204 218 233 234 233 240 226 260 269 258 274 288 292 300 305 320 343 337 14 360
243 250 258 262 255 243 246 244 247 248 246 250 253 243 241 234 232 236 225 197 213 226 211 218 216 237 228 235 208 233 264 259 262 275 272 281 296 298 315 333 331 26 13 18
244 252 264 263 260 252 240 244 247 247 253 250 248 257 263 229 227 220 215 208 219 235 224 219 239 237 228 232 248 222 264 276 284 281 278 283 296 290 310 305 322 353 351 344
244 252 255 260 256 234 234 238 243 242 249 254 249 243 245 236 222 224 207 203 210 225 237 239 239 237 246 240 248 265 281 256 271 277 280 274 283 291 302 301 312 308 313 319
239 245 247 248 261 254 240 229 238 246 267 257 249 245 242 234 222 221 206 204 211 227 234 245 232 251 254 261 263 257 252 260 257 262 275 265 280 286 293 296 306 299 306 299
236 239 235 238 238 241 226 232 246 254 262 256 253 249 241 227 218 222 211 204 211 224 237 242 249 260 241 286 249 258 271 277 267 262 276 280 278 285 290 294 305 303 300 299
231 237 237 235 238 238 235 240 240 253 261 257 259 246 228 219 216 220 216 212 208 218 236 239 246 253 257 249 261 260 272 269 252 256 283 281 279 286 288 295 298 304 302 312
229 230 232 233 235 235 236 244 253 254 261 259 248 241 223 214 225 218 214 221 221 206 217 231 242 257 270 265 270 273 280 273 281 263 273 279 277 286 291 298 302 298 289 301
227 230 234 237 235 235 238 244 248 252 261 253 245 229 227 212 224 223 242 228 220 247 244 246 231 248 265 271 284 277 290 295 270 261 285 260 266 292 297 298 297 290 299 303
224 227 231 236 237 236 238 239 246 247 253 252 238 221 226 228 226 219 229 235 229 227 227 220 241 249 244 251 266 283 290 288 285 274 284 279 288 294 295 297 287 289 293 295
230 229 229 234 236 240 231 235 238 240 245 249 249 236 236 225 227 228 233 236 238 235 233 230 249 237 244 258 264 271 276 265 281 272 276 277 277 281 284 288 289 293 289 292
230 231 234 231 234 237 238 233 235 234 240 243 232 231 235 230 233 237 236 240 237 239 238 236 236 265 253 256 263 263 266 274 273 273 280 280 283 284 284 288 291 293 294 296